Tracking 29065 objects as of 22-Jul-2024
HD Live streaming from Space Station
objects crossing your sky now

GEOSAT

Track GEOSAT now!
10-day predictions
GEOSAT is classified as:


NORAD ID: 15595
Int'l Code: 1985-021A
Perigee: 767.4 km
Apogee: 770.1 km
Inclination: 108.1 °
Period: 100.1 minutes
Semi major axis: 7139 km
RCS: 9.5926 m2 (large)
Launch date: March 13, 1985
Source: United States (US)
Launch site: AIR FORCE WESTERN TEST RANGE (AFWTR)
Your satellite tracking list
Your tracking list is empty




NASA's NSSDC Master Catalog

Two Line Element Set (TLE):
1 15595U 85021A   24204.22503122  .00000527  00000-0  21415-3 0  9990
2 15595 108.0584  75.3139 0001858 254.3056 105.7881 14.39065756 63058
Source of the keplerian elements: AFSPC